Ottumwa, IA

8:20 AM CDT on June 29, 2017 (GMT -0500)
Ottumwa Industrial

Weather History for KOTM - March, 2013

Change the Weather History Date:

Sunday, March 17, 2013

  Actual Average Record
Temperature  
Mean Temperature 31 °F 39 °F  
Max Temperature 38 °F 50 °F 82 °F (2012)
Min Temperature 24 °F 29 °F 2 °F (1906)
Degree Days  
Heating Degree Days 34 26  
Month to date heating degree days 580 495  
Since 1 July heating degree days 5107 5380  
Cooling Degree Days 0 0  
Month to date cooling degree days 0 0  
Year to date cooling degree days 0 0  
Moisture  
Dew Point 22 °F    
Average Humidity 72    
Maximum Humidity 85    
Minimum Humidity 59    
Precipitation  
Precipitation T in 0.08 in 1.07 in (1998)
Month to date precipitation 1.83 1.17  
Year to date precipitation 5.16 3.35  
Sea Level Pressure  
Sea Level Pressure 30.06 in    
Wind  
Wind Speed 13 mph (East)    
Max Wind Speed 20 mph    
Max Gust Speed 24 mph    
Visibility 10 miles    
Events Snow    
T = Trace of Precipitation, MM = Missing Value Source: NWS Daily Summary

Daily Weather History Graph

Daily Weather History Graph

Search for Another Location

Airport or City:

Trip Planner

Search our weather history database for the weather conditions in past years. The results will help you decide how hot, cold, wet, or windy it might be!

Date:

Astronomy

Mar. 17, 2013 Rise Set
Actual Time 7:17 AM CDT 7:18 PM CDT
Civil Twilight 6:50 AM CDT 7:46 PM CDT
Nautical Twilight 6:18 AM CDT 8:18 PM CDT
Astronomical Twilight 5:45 AM CDT 8:51 PM CDT
Moon 10:27 AM CDT (3/17) 12:30 AM CDT (3/17)
Length of Visible Light 12h 56m
Length of Day
12h 01m
Waxing Crescent, 31% of the Moon is Illuminated
Mar 17
Waxing Crescent
Mar 19
First Quarter
Mar 27
Full
Apr 2
Last Quarter
Apr 10
New

Hourly Weather History & Observations

Time (CDT) Temp. Windchill Dew Point Humidity Pressure Visibility Wind Dir Wind Speed Gust Speed Precip Events Conditions
12:53 AM 28.0 °F 16.5 °F 21.0 °F 75% 30.18 in 10.0 mi North 15.0 mph - N/A   Partly Cloudy
1:53 AM 28.0 °F 17.5 °F 19.9 °F 72% 30.17 in 10.0 mi North 12.7 mph - N/A   Clear
2:53 AM 27.0 °F 15.6 °F 19.9 °F 75% 30.15 in 10.0 mi North 13.8 mph - N/A   Clear
3:53 AM 26.1 °F 15.0 °F 19.9 °F 78% 30.13 in 10.0 mi NNE 12.7 mph - N/A   Clear
4:35 AM 26.6 °F 17.5 °F 19.4 °F 74% 30.12 in 10.0 mi NE 9.2 mph - N/A   Mostly Cloudy
4:53 AM 26.1 °F 16.2 °F 19.0 °F 75% 30.15 in 10.0 mi NE 10.4 mph - N/A   Mostly Cloudy
5:00 AM 24.8 °F 15.3 °F 17.6 °F 74% 30.13 in 10.0 mi NE 9.2 mph - N/A   Scattered Clouds
5:27 AM 24.8 °F 16.9 °F 17.6 °F 74% 30.13 in 10.0 mi NE 6.9 mph - N/A   Mostly Cloudy
5:43 AM 24.8 °F 16.1 °F 19.4 °F 80% 30.13 in 10.0 mi NE 8.1 mph - N/A   Scattered Clouds
5:53 AM 25.0 °F 17.1 °F 19.0 °F 78% 30.16 in 10.0 mi NE 6.9 mph - N/A   Partly Cloudy
6:53 AM 24.1 °F 16.0 °F 19.0 °F 81% 30.16 in 10.0 mi ENE 6.9 mph - N/A   Clear
7:53 AM 24.1 °F 14.4 °F 19.0 °F 81% 30.17 in 10.0 mi ENE 9.2 mph - N/A   Clear
8:53 AM 27.0 °F 15.6 °F 19.0 °F 72% 30.17 in 10.0 mi East 13.8 mph - N/A   Clear
9:33 AM 28.4 °F 18.0 °F 19.4 °F 69% 30.14 in 10.0 mi East 12.7 mph - N/A   Mostly Cloudy
9:53 AM 28.9 °F 18.2 °F 21.0 °F 72% 30.16 in 10.0 mi East 13.8 mph - N/A   Overcast
10:53 AM 33.1 °F 22.2 °F 21.0 °F 61% 30.15 in 10.0 mi ESE 17.3 mph 21.9 mph N/A   Mostly Cloudy
11:07 AM 30.2 °F 19.8 °F 19.4 °F 64% 30.12 in 10.0 mi ESE 13.8 mph 21.9 mph N/A   Scattered Clouds
11:19 AM 32.0 °F 22.5 °F 21.2 °F 64% 30.12 in 10.0 mi East 12.7 mph 20.7 mph N/A   Mostly Cloudy
11:53 AM 33.1 °F 24.9 °F 21.9 °F 64% 30.12 in 10.0 mi East 10.4 mph - N/A   Mostly Cloudy
12:45 PM 33.8 °F 24.3 °F 21.2 °F 60% 30.07 in 10.0 mi ESE 13.8 mph 20.7 mph N/A   Scattered Clouds
12:53 PM 33.1 °F 23.0 °F 21.0 °F 61% 30.09 in 10.0 mi East 15.0 mph 20.7 mph N/A   Scattered Clouds
1:13 PM 33.8 °F 24.8 °F 21.2 °F 60% 30.05 in 10.0 mi ESE 12.7 mph 19.6 mph N/A   Mostly Cloudy
1:53 PM 35.1 °F 24.8 °F 23.0 °F 61% 30.06 in 10.0 mi East 17.3 mph 20.7 mph N/A   Mostly Cloudy
2:53 PM 37.0 °F 27.4 °F 24.1 °F 59% 30.01 in 10.0 mi ESE 17.3 mph - N/A   Scattered Clouds
3:14 PM 37.4 °F 28.2 °F 24.8 °F 60% 29.98 in 10.0 mi ESE 16.1 mph - N/A   Mostly Cloudy
3:53 PM 37.9 °F 28.5 °F 25.0 °F 60% 29.99 in 10.0 mi East 17.3 mph 23.0 mph N/A   Mostly Cloudy
4:12 PM 37.4 °F 29.3 °F 24.8 °F 60% 29.95 in 10.0 mi ESE 12.7 mph - N/A   Scattered Clouds
4:53 PM 37.0 °F 27.7 °F 25.0 °F 62% 29.97 in 10.0 mi ESE 16.1 mph - N/A   Mostly Cloudy
5:04 PM 37.4 °F 28.5 °F 24.8 °F 60% 29.93 in 10.0 mi ESE 15.0 mph - N/A   Scattered Clouds
5:53 PM 37.0 °F 28.5 °F 26.1 °F 65% 29.95 in 10.0 mi ESE 13.8 mph - N/A   Partly Cloudy
6:53 PM 35.1 °F 25.2 °F 25.0 °F 67% 29.94 in 10.0 mi ESE 16.1 mph - N/A   Clear
7:53 PM 34.0 °F 25.0 °F 26.1 °F 73% 29.93 in 10.0 mi East 12.7 mph - N/A   Overcast
8:53 PM 34.0 °F 24.6 °F 27.0 °F 75% 29.90 in 10.0 mi East 13.8 mph - N/A   Overcast
9:53 PM 34.0 °F 26.0 °F 27.0 °F 75% 29.91 in 10.0 mi East 10.4 mph - N/A   Overcast
10:53 PM 34.0 °F 25.0 °F 27.0 °F 75% 29.90 in 10.0 mi ESE 12.7 mph - N/A   Overcast
11:44 PM 32.0 °F 22.5 °F 28.4 °F 87% 29.84 in 3.0 mi East 12.7 mph - 0.00 in Snow Light Snow
11:53 PM 32.0 °F 24.2 °F 28.0 °F 85% 29.87 in 5.0 mi East 9.2 mph - 0.00 in   Overcast